Location: USNO
(38.9242°N, 77.0663°W)
Time: 13:47:18
(UTC-04:00)

ISS - Pass Details

Date: 09 October 2017
Orbit: 401 x 408 km, 51.6° (Epoch: 22 October)

Event Time Altitude Azimuth Distance (km) Brightness Sun altitude
Rises 20:34:33 0° 315° (NW) 2,328 0.9 -23.4°
Reaches altitude 10° 20:36:50 10° 328° (NNW) 1,467 -0.5 -23.8°
Enters shadow 20:38:03 18° 343° (NNW) 1,080 -1.4 -24.0°
